EHI
5 6 10 9 6 5 4 2 1 2 3 2 2 2 2 1 3 6 6 6 8 11 12 13 11 8 3 1 1 0 0 0 0 0 1 1 1 1 2 1 0 0 0
7 8 10 9 6 4 4 3 2 3 3 3 3 2 2 2 4 7 7 6 8 10 12 12 11 10 6 3 2 2 0 0 0 0 0 0 0 1 2 1 0 0 0
10 10 10 8 6 6 6 5 4 3 3 3 2 1 1 1 4 6 7 7 8 9 10 11 11 11 9 6 5 4 2 1 1 0 0 0 0 0 1 1 0 0 0
12 11 9 7 7 9 8 6 5 3 2 1 1 1 2 3 4 6 7 8 7 7 9 10 10 10 10 8 7 6 6 5 4 2 0 0 0 0 1 1 1 0 0
12 11 9 7 8 10 9 6 5 4 3 1 1 2 4 6 7 7 7 7 6 7 8 10 10 9 9 9 8 8 9 10 8 5 2 1 2 1 1 1 1 0 0
12 11 9 8 9 10 9 7 6 5 3 2 1 1 3 7 9 8 6 5 5 6 6 7 8 8 8 9 8 7 9 12 11 7 4 4 4 4 2 1 1 1 1
11 10 10 11 10 10 10 9 9 5 3 2 2 1 2 5 7 7 5 4 3 3 4 4 6 8 7 7 6 6 7 10 10 8 7 7 7 6 4 2 1 2 2
12 11 13 12 10 10 9 10 10 7 4 3 2 2 3 5 6 4 3 3 2 2 2 4 7 9 8 7 5 5 6 8 9 9 9 8 7 6 4 3 3 2 1
14 14 14 11 9 10 10 9 9 8 5 3 3 3 4 5 4 3 2 3 3 2 1 3 7 10 10 9 7 6 6 8 9 9 9 7 5 4 4 5 6 4 2
16 16 13 10 9 11 11 9 8 8 6 4 3 5 6 5 4 2 2 4 4 2 1 3 7 10 10 10 10 8 6 8 8 9 8 6 4 3 3 4 6 6 5
20 17 13 12 11 11 11 11 11 11 8 5 4 7 8 7 5 3 1 2 3 3 3 5 7 9 9 9 9 8 6 5 6 6 6 4 3 2 1 2 3 5 5
25 21 16 17 16 13 12 15 19 17 12 7 6 7 7 7 7 5 3 1 2 4 6 7 8 8 8 8 8 6 4 2 2 3 2 2 1 1 1 1 1 2 3
30 27 22 23 23 20 16 17 21 18 12 9 7 6 6 6 7 7 5 3 2 5 7 7 7 6 6 8 9 6 2 0 0 0 0 0 0 1 1 1 1 1 1
31 29 27 26 27 25 20 17 16 14 11 9 7 7 8 7 6 5 5 5 4 6 7 5 5 4 4 6 7 5 2 1 0 0 0 0 0 1 1 1 0 0 0
28 28 28 28 27 25 22 17 14 12 11 10 8 8 10 9 6 4 4 7 8 8 7 6 4 3 3 3 3 3 3 3 1 0 0 0 0 0 0 0 0 0 0
25 28 30 30 28 25 23 19 15 14 14 13 11 11 12 11 9 6 6 9 12 11 10 9 7 3 2 2 2 4 6 5 3 2 0 0 0 0 0 0 0 0 0
27 28 30 31 29 26 23 20 15 13 14 14 13 13 13 12 10 11 10 10 13 15 13 11 9 6 5 4 4 6 6 5 4 3 1 0 0 0 0 0 0 0 0
30 28 28 29 29 26 24 22 16 12 12 13 13 15 15 13 12 13 13 13 14 17 15 11 8 9 8 6 5 6 4 3 3 3 2 0 0 0 0 0 0 0 0
32 29 27 27 27 26 25 23 18 13 12 13 14 16 16 16 15 14 14 14 15 16 15 10 8 8 8 6 6 6 4 2 1 1 1 0 0 0 0 0 0 0 0
30 29 28 26 24 25 24 20 17 15 14 13 14 16 17 17 17 16 14 13 13 12 12 9 8 7 6 5 5 5 5 3 1 1 1 0 1 1 0 0 0 0 0
25 26 27 25 23 21 18 15 13 14 14 14 15 16 15 14 14 13 12 11 11 10 9 8 8 8 6 5 4 4 4 4 3 2 2 2 2 3 2 1 1 1 0
23 23 25 26 23 16 10 8 10 12 15 16 16 16 14 10 9 9 8 8 7 6 6 7 8 8 6 4 3 3 3 3 3 3 3 2 3 4 4 2 2 2 1
27 26 26 28 25 16 8 5 7 11 14 17 17 16 13 10 8 8 7 5 4 4 4 5 7 8 6 4 3 3 3 3 3 3 3 2 3 4 3 2 1 1 1
32 31 29 28 26 19 9 3 5 8 13 16 17 16 13 10 10 10 9 7 6 5 3 3 4 6 5 3 3 3 3 3 3 3 3 3 4 4 3 2 1 1 0
34 33 29 27 26 19 9 2 2 7 12 15 17 15 11 8 8 8 9 9 9 8 6 3 2 2 2 1 2 3 3 3 3 3 4 5 6 5 4 4 3 2 1
32 32 28 25 24 18 8 2 1 5 11 15 15 14 9 5 5 7 9 10 10 9 8 5 2 1 0 0 1 3 3 3 3 3 4 6 6 6 6 5 5 3 1
Wind_Speed
1 1 1 1 1 1 2 1 1 1 1 1 2 3 2 2 4 4 4 7 8 7 7 7 7 7 7 7 7 7 7 6 6 6 7 7 7 8 8 8 8 8 8
1 1 1 1 1 1 1 2 1 1 1 1 1 2 2 2 3 4 5 6 8 8 7 6 6 6 6 6 6 7 7 7 7 6 7 8 8 7 7 7 8 8 8
1 1 1 1 0 1 1 1 1 1 2 2 2 2 2 2 3 4 5 5 5 7 7 6 6 5 5 6 6 6 6 7 7 7 6 6 7 8 8 8 8 8 9
1 1 1 1 1 1 1 1 1 1 1 1 2 2 2 2 3 4 4 4 4 5 6 7 6 6 6 6 5 5 4 5 6 7 6 6 6 6 7 8 8 7 8
1 1 1 1 1 1 1 1 2 1 0 1 2 2 2 3 3 3 3 4 4 4 4 7 7 6 6 6 6 5 5 5 5 6 7 7 7 7 6 6 6 7 8
1 1 1 0 1 2 2 2 2 1 1 1 1 0 1 3 3 3 4 3 3 4 4 5 5 5 6 6 5 6 6 6 5 5 6 6 7 7 7 7 7 7 7
1 1 2 1 1 2 1 1 1 0 1 1 0 1 1 2 3 3 2 2 3 3 4 5 4 3 4 6 5 6 7 7 7 6 6 5 5 6 7 7 8 8 8
0 1 1 1 1 1 1 1 1 1 1 0 1 1 1 0 1 3 3 3 3 3 4 5 4 4 3 3 4 6 6 7 7 6 6 6 6 6 7 7 8 8 8
2 1 2 1 2 1 1 0 1 1 1 1 1 0 0 0 0 1 2 3 3 2 2 3 4 4 4 3 4 5 6 6 6 6 6 5 5 5 5 6 6 6 7
1 1 1 1 2 2 2 1 1 2 1 1 1 0 0 0 0 0 0 1 2 2 2 2 2 2 2 3 4 5 6 5 6 5 4 4 4 3 4 5 6 7 6
2 1 1 1 1 1 1 1 2 2 2 2 2 1 0 0 1 1 1 0 0 1 2 1 1 1 2 2 2 4 5 4 4 4 3 3 3 3 3 3 4 6 6
2 2 1 1 0 0 1 1 1 1 1 2 2 2 1 1 1 0 0 1 1 1 1 1 1 1 2 2 2 4 5 5 4 3 3 2 2 2 3 3 4 5 5
2 2 2 1 0 0 0 1 0 1 1 2 2 2 2 1 1 1 0 0 1 1 1 1 1 2 1 3 2 4 4 5 5 4 4 3 3 3 3 3 4 4 4
2 3 2 2 1 1 0 0 0 0 1 1 2 2 2 2 2 1 0 0 0 0 0 0 1 1 1 2 3 4 4 6 5 5 4 4 4 4 3 3 3 4 4
2 3 3 2 2 1 0 0 0 1 1 1 1 1 1 1 1 1 1 0 0 1 1 1 1 1 1 2 3 2 2 6 7 6 6 5 4 4 4 4 4 4 4
2 2 2 2 2 1 1 0 0 0 0 1 1 1 1 2 2 1 1 1 1 0 1 0 0 1 0 0 2 1 2 5 6 7 7 6 6 5 5 5 4 4 4
2 2 2 2 2 1 1 1 0 0 0 1 1 1 1 1 2 2 2 1 1 0 1 1 0 0 0 0 1 1 2 4 4 7 7 8 7 7 6 5 5 4 4
2 2 2 2 2 2 1 1 1 0 0 0 1 1 1 1 1 1 2 2 1 0 1 1 1 0 1 1 1 2 2 2 3 6 8 9 8 8 8 7 6 5 5
2 2 2 2 2 2 2 2 1 1 0 1 0 0 1 0 0 1 1 1 2 2 1 1 1 1 1 1 1 2 2 1 2 3 6 7 8 9 9 8 7 6 6
3 2 2 2 2 2 2 2 2 1 0 0 0 0 1 0 1 1 1 1 1 2 2 1 1 1 0 1 1 1 2 1 2 2 1 3 6 7 8 8 7 7 6
3 2 2 2 2 2 2 1 1 2 1 1 1 1 1 0 0 1 1 1 1 1 2 2 1 1 1 1 1 2 2 2 2 1 1 2 3 3 4 5 6 6 6
2 2 2 2 2 2 2 2 0 1 1 2 2 2 2 2 2 1 1 1 1 1 1 2 2 2 2 1 1 2 1 2 2 1 1 2 2 2 3 3 6 7 7
2 2 2 2 2 2 3 2 1 2 2 2 3 3 3 2 2 2 2 3 3 4 4 3 3 3 2 2 2 3 2 3 3 2 2 3 2 2 2 3 6 8 8
3 3 3 3 2 3 4 3 2 4 3 3 3 3 3 1 1 1 2 3 3 3 4 3 3 3 3 2 2 3 4 4 3 2 1 2 2 2 2 2 6 8 9
2 3 3 3 3 3 5 4 2 3 3 4 4 3 2 2 1 2 3 3 3 3 4 4 4 5 5 5 4 2 3 3 3 2 1 2 2 2 3 2 4 8 9
3 3 3 3 3 3 5 5 4 3 4 3 3 2 3 3 2 2 3 3 3 3 3 3 4 5 5 6 6 4 3 2 2 3 2 1 2 2 2 2 1 2 4
Wind_Direction
85 89 93 105 149 148 161 185 188 174 169 185 203 176 184 154 149 152 151 158 154 157 166 174 180 188 192 192 195 199 199 199 201 204 209 212 215 221 223 218 215 215 214
68 76 92 83 57 75 121 144 146 142 145 155 163 164 178 161 156 152 154 162 160 157 160 168 173 179 189 196 202 207 207 207 207 211 218 218 216 216 219 225 221 216 214
83 88 98 102 96 134 124 119 117 116 142 156 167 180 175 175 164 167 164 163 168 172 173 171 171 174 182 192 203 207 207 206 201 203 211 216 221 223 223 225 228 222 218
83 68 93 96 183 153 132 133 140 138 139 164 181 184 164 172 172 174 171 169 167 171 178 179 176 176 178 184 188 190 188 198 204 205 208 215 223 222 223 227 229 226 222
78 45 84 18 285 119 99 94 85 73 133 190 205 182 183 175 174 181 173 175 170 170 169 179 184 184 188 191 194 196 198 202 209 215 218 220 226 225 223 227 230 231 228
94 11 111 38 11 53 61 58 69 58 300 271 274 167 190 178 171 176 187 181 176 174 170 172 178 189 194 193 195 202 205 207 209 215 223 229 229 227 224 225 228 229 228
77 41 24 34 59 73 64 77 84 232 253 249 294 325 249 197 177 176 182 168 169 171 170 173 176 179 184 195 203 209 210 215 217 221 225 232 234 230 226 227 227 226 227
57 77 54 21 34 89 66 13 9 326 287 301 269 270 288 142 221 186 168 175 180 177 177 179 184 175 178 169 187 203 213 220 220 223 229 233 238 237 232 230 228 225 226
114 51 55 28 351 18 72 354 326 303 305 310 324 16 319 317 297 169 181 163 160 164 185 177 179 184 182 165 171 197 205 214 221 226 228 236 242 239 237 228 226 225 226
117 103 73 50 11 14 29 346 36 317 309 311 331 19 185 120 244 305 310 141 152 166 179 188 163 162 165 156 152 162 186 203 212 215 224 230 238 240 239 238 230 223 216
150 124 102 88 50 26 21 11 14 357 356 341 327 316 305 207 237 213 237 146 141 163 158 146 118 139 155 138 146 147 160 180 190 201 210 218 224 233 235 233 232 227 222
136 120 104 85 81 44 351 348 354 17 353 335 334 344 346 351 305 238 206 211 183 158 127 135 131 133 137 126 133 141 156 165 175 193 195 202 224 239 237 232 230 228 224
133 128 128 110 182 266 275 304 26 355 341 323 326 325 328 339 337 355 106 238 152 163 152 158 138 132 150 132 146 166 169 175 185 193 199 208 221 230 239 244 237 227 226
135 144 152 154 187 224 269 355 315 246 322 315 326 329 325 345 349 357 1 36 349 254 132 157 104 122 111 129 160 169 168 181 188 190 197 209 217 217 222 229 243 241 232
149 146 160 176 184 167 194 47 12 357 353 346 332 329 331 324 334 346 3 47 198 265 275 193 149 132 140 132 153 175 163 178 187 194 199 204 209 215 219 220 227 236 240
143 155 158 166 160 144 131 107 65 331 25 339 312 346 341 341 340 344 359 10 34 204 273 306 196 143 157 187 159 156 168 179 196 199 201 201 205 208 209 213 218 224 231
163 157 148 149 146 138 136 145 206 60 31 336 329 336 332 351 351 354 354 5 10 41 271 301 358 83 117 288 190 211 197 185 190 200 203 204 207 207 208 208 211 218 228
172 167 160 167 174 161 163 168 218 284 231 297 306 336 322 324 349 337 342 339 330 315 243 276 304 288 260 206 211 247 239 221 198 202 207 210 208 207 207 208 210 214 220
180 172 163 168 178 179 188 192 190 240 281 281 276 317 292 301 287 316 305 316 315 315 279 250 267 261 251 274 261 272 277 266 254 215 204 208 209 209 209 210 212 213 216
188 191 181 175 185 193 196 195 186 209 248 292 317 298 302 318 275 270 274 309 314 311 295 284 270 270 278 317 291 273 277 266 266 267 233 218 209 210 212 213 214 215 215
197 190 193 196 203 209 199 164 215 210 202 256 278 273 257 191 24 307 303 308 299 299 302 296 279 278 298 317 283 279 278 281 257 251 250 238 202 210 213 212 212 212 211
198 196 202 208 224 231 140 138 217 230 222 234 249 252 236 219 189 210 242 261 271 252 276 285 285 277 271 265 279 282 289 301 287 263 253 268 228 219 208 204 200 199 203
196 204 206 207 213 185 158 152 170 242 233 235 241 241 254 236 190 224 236 236 251 253 246 252 260 270 273 263 267 285 280 278 274 273 266 269 263 256 240 213 198 194 199
196 201 207 206 205 188 162 173 220 240 232 233 236 241 242 224 252 276 261 255 245 250 255 251 255 267 273 269 251 254 268 268 261 262 241 261 269 261 258 210 205 204 205
205 206 207 197 198 183 177 189 216 258 242 239 231 229 215 212 224 277 268 267 268 266 264 253 249 252 256 258 254 260 268 273 279 276 260 257 270 276 258 229 217 213 212
213 216 217 209 206 195 192 195 206 257 256 250 228 204 193 195 205 248 264 269 268 273 281 264 251 254 250 248 243 233 247 264 281 286 273 252 277 299 285 256 230 211 220